Wetbulb
35.59 35.14 35.29 36.19 37.13 37.64 38.55 37.70 33.85 27.25 25.58 27.00 26.09 29.33 29.25 29.75 31.21 31.15 30.20 34.23 35.76 35.80 35.77 36.23 36.83 37.45 37.87 38.53 39.18 39.44 40.16 41.15 41.89 42.42 42.83 43.29 43.90 45.15
35.78 34.51 34.41 35.50 37.81 37.59 36.75 35.10 32.79 30.06 23.64 24.85 24.82 25.95 27.51 29.94 31.04 30.23 29.77 34.08 33.93 34.79 35.56 35.59 36.18 36.76 36.93 37.55 37.83 38.24 38.67 39.41 40.07 40.94 41.74 42.03 42.98 43.88
35.08 35.49 35.02 35.93 34.80 33.41 30.58 29.46 27.79 26.02 21.95 23.20 24.67 25.04 24.15 24.74 27.04 27.98 29.60 28.87 29.60 33.65 34.53 34.87 35.85 35.96 36.75 36.46 36.28 36.49 37.29 37.99 38.75 39.80 40.75 41.19 42.47 42.48
33.96 33.55 33.61 35.28 30.72 28.26 26.50 25.44 24.56 24.28 22.74 20.74 22.03 22.53 23.12 24.67 25.43 24.91 28.24 30.70 28.83 32.28 33.45 33.82 33.66 34.12 35.81 36.23 36.32 36.68 37.10 37.32 37.71 38.39 39.56 40.03 40.22 40.61
34.45 32.57 32.10 31.86 27.90 26.20 25.21 24.39 24.03 26.15 22.68 21.76 21.51 22.61 22.52 23.80 24.31 25.63 26.08 26.25 30.02 31.91 31.23 31.58 32.20 33.24 34.15 34.60 34.98 35.50 36.08 36.16 36.83 38.33 38.60 38.61 38.45 38.42
32.45 31.52 31.15 29.25 27.28 25.94 25.32 23.58 23.68 22.26 22.36 21.46 21.70 21.72 21.70 23.78 23.88 22.89 24.06 25.35 24.80 27.62 28.92 29.48 31.26 32.49 32.96 33.10 33.70 34.10 35.40 35.67 36.02 37.42 38.25 37.68 37.29 38.58
31.16 30.82 29.51 29.90 32.52 28.57 25.06 23.04 22.60 21.42 21.15 20.80 20.58 21.13 21.40 21.37 21.87 23.83 23.20 22.53 23.35 24.41 23.98 25.50 26.87 26.98 28.25 31.07 32.20 33.55 34.83 34.43 36.82 37.46 37.76 37.93 37.56 38.02
28.26 28.72 28.43 30.75 31.48 31.62 30.56 28.95 25.81 21.26 19.57 17.44 19.85 19.12 19.79 20.60 22.31 21.09 20.68 19.99 19.59 23.57 23.06 23.67 26.09 25.69 27.59 28.32 31.41 33.38 35.08 35.32 35.20 36.71 37.06 37.35 37.54 37.11
27.17 27.43 27.64 29.08 28.41 26.00 27.49 26.60 25.24 25.96 24.24 20.85 19.13 19.51 19.31 20.32 20.81 20.71 21.63 21.61 22.03 24.57 24.22 23.11 24.66 24.18 27.45 29.74 32.08 33.22 34.36 35.75 36.04 36.04 36.70 36.92 36.50 36.15
27.51 27.65 26.22 25.53 25.17 24.75 23.40 22.37 22.50 22.38 22.93 23.56 21.47 20.73 21.18 23.06 24.31 25.46 25.81 26.26 25.44 25.41 24.89 22.37 23.98 24.35 26.81 27.07 31.88 33.56 34.74 35.15 35.29 35.85 36.54 36.37 35.92 35.46
28.89 28.67 27.41 25.42 26.78 28.56 23.65 22.49 21.57 21.69 25.03 26.30 26.65 27.30 27.27 27.57 27.84 26.47 22.86 22.30 20.06 22.08 24.05 24.55 24.22 24.24 26.07 26.66 27.19 33.33 34.17 34.70 35.01 35.45 36.22 36.52 36.03 35.13
27.43 27.11 29.38 25.90 27.86 27.00 22.55 20.97 18.21 20.08 21.28 21.94 22.39 23.15 24.53 24.53 26.98 25.12 23.87 21.30 21.46 20.29 25.08 23.84 24.55 26.30 21.88 22.96 24.73 26.14 26.66 32.36 34.53 34.72 35.86 36.12 35.13 32.10
26.41 25.53 25.43 28.48 27.96 27.84 27.76 21.81 19.44 22.34 22.59 22.53 21.63 21.37 21.88 22.80 23.63 24.41 24.49 23.20 22.11 21.51 25.37 26.38 26.14 27.07 26.00 22.78 23.03 25.13 25.80 29.07 28.40 29.40 33.56 34.23 34.32 34.04
25.91 26.24 25.27 28.60 28.72 28.69 27.45 26.77 27.14 24.82 17.72 17.49 17.66 18.70 18.91 19.79 21.88 22.86 24.07 24.63 25.27 24.50 25.92 27.15 27.10 27.92 26.32 24.35 21.44 23.44 27.41 28.39 30.31 32.18 31.84 33.64 34.58 35.11
26.29 26.70 27.48 28.48 29.31 28.09 28.75 28.35 24.23 21.02 18.48 12.22 16.79 16.58 17.73 20.01 22.60 22.53 23.46 23.66 25.04 25.62 27.12 25.86 26.48 26.86 27.08 26.33 24.03 21.86 23.63 27.58 30.10 32.05 31.93 32.08 31.91 33.48
26.10 27.32 23.92 24.23 20.83 22.08 21.38 24.09 22.93 20.86 19.68 18.22 15.22 15.41 17.55 18.16 18.39 19.97 19.06 20.66 21.58 22.01 25.11 25.12 26.00 26.67 24.80 28.23 26.96 22.18 23.00 24.77 27.18 31.48 32.03 31.86 31.86 32.07
24.47 21.99 21.47 20.69 22.62 21.84 21.32 21.80 21.35 21.04 18.81 15.99 13.22 13.74 16.03 17.71 17.40 18.93 18.97 19.09 16.63 19.17 20.32 23.28 26.22 26.12 25.34 29.10 27.61 26.84 26.25 24.93 27.20 31.23 31.65 31.09 31.86 31.88
24.46 22.51 22.06 20.97 20.45 19.90 18.31 18.33 18.45 17.64 18.45 17.62 13.05 14.74 14.19 13.61 14.86 18.23 19.31 15.95 15.94 17.87 18.89 21.49 22.17 21.50 22.54 24.30 29.16 26.55 26.16 26.18 26.22 27.67 29.85 29.81 30.46 31.44
25.78 20.89 21.44 17.11 17.16 18.85 19.55 19.28 18.25 18.55 16.86 17.64 15.79 14.50 11.49 14.12 13.05 15.16 15.46 15.81 15.60 17.23 19.23 19.80 19.08 18.24 16.73 14.38 23.38 29.27 23.94 24.85 25.71 21.17 26.17 27.73 28.87 28.91
25.16 22.43 20.48 18.09 18.04 19.36 19.74 19.33 19.53 14.74 14.95 14.83 11.67 7.93 3.50 9.46 10.59 12.31 13.84 9.98 13.00 16.45 17.96 18.94 17.81 18.72 17.29 14.12 19.16 20.63 27.95 24.49 27.35 21.84 26.43 28.17 29.31 30.49
26.85 25.13 23.06 21.58 20.05 20.66 19.82 17.15 14.79 14.05 13.96 10.21 10.26 7.98 1.53 9.84 8.60 9.87 8.75 11.34 10.15 16.63 15.49 15.98 17.84 21.69 24.13 25.36 19.14 18.58 18.84 27.99 28.71 24.78 26.64 19.89 21.01 25.44
26.88 25.39 24.88 24.35 22.88 21.66 19.94 19.14 16.68 16.95 17.16 13.66 10.00 4.56 1.61 5.81 5.65 4.83 3.86 9.10 15.47 11.23 14.77 16.96 19.39 21.40 23.18 23.63 22.59 16.22 19.28 18.50 25.02 27.78 28.67 26.38 19.90 18.61
27.32 26.43 25.25 25.18 25.42 24.24 23.06 21.80 20.65 20.28 20.17 19.33 16.42 11.66 3.84 4.54 8.35 4.89 4.63 9.39 13.67 10.99 12.40 13.32 17.19 19.32 20.32 22.06 22.36 21.60 20.12 18.87 21.45 20.58 20.83 27.42 29.02 29.33
MSLP
1026.28 1026.22 1026.16 1026.05 1025.97 1025.89 1025.79 1025.99 1026.23 1026.42 1026.17 1025.67 1025.65 1025.24 1025.46 1025.23 1024.84 1024.48 1024.24 1023.72 1023.20 1022.86 1022.54 1022.20 1021.87 1021.46 1021.03 1020.62 1020.21 1019.93 1019.59 1019.13 1018.64 1018.17 1017.97 1017.83 1017.71 1017.61
1026.16 1026.19 1026.12 1025.90 1025.87 1025.73 1026.03 1026.23 1026.35 1026.66 1026.74 1026.10 1025.92 1025.62 1025.64 1025.12 1024.63 1024.32 1023.91 1023.21 1022.84 1022.39 1021.99 1021.64 1021.28 1020.88 1020.55 1020.11 1019.75 1019.37 1019.07 1018.75 1018.31 1017.73 1017.28 1017.15 1017.01 1016.91
1025.75 1025.89 1026.00 1025.90 1025.93 1025.79 1025.71 1026.03 1026.39 1026.66 1026.80 1026.29 1025.91 1025.65 1025.47 1025.10 1024.50 1024.11 1023.63 1023.00 1022.48 1022.05 1021.59 1021.12 1020.67 1020.29 1019.85 1019.47 1019.21 1018.86 1018.56 1018.26 1017.94 1017.41 1016.72 1016.35 1016.26 1016.60
1025.60 1025.72 1025.70 1025.57 1025.66 1025.79 1025.87 1026.04 1026.35 1026.49 1026.78 1026.44 1025.92 1025.62 1025.27 1024.85 1024.46 1024.15 1023.34 1022.68 1022.30 1021.81 1021.18 1020.75 1020.24 1019.71 1019.24 1018.85 1018.58 1018.24 1017.87 1017.55 1017.17 1016.70 1016.12 1015.76 1015.78 1015.98
1025.25 1025.45 1025.61 1025.58 1025.73 1025.62 1025.82 1026.09 1026.06 1026.17 1026.37 1026.27 1025.80 1025.41 1024.96 1024.63 1024.15 1023.72 1023.14 1022.58 1022.02 1021.43 1020.81 1020.19 1019.64 1019.16 1018.66 1018.23 1017.88 1017.53 1017.21 1016.90 1016.42 1015.84 1015.46 1015.34 1015.45 1015.52
1025.01 1025.19 1025.23 1025.17 1025.37 1025.32 1025.41 1025.73 1025.95 1026.01 1026.04 1026.01 1025.71 1025.23 1024.92 1024.34 1024.07 1023.67 1022.90 1022.46 1021.69 1021.01 1020.28 1019.86 1019.28 1018.72 1018.21 1017.68 1017.23 1016.76 1016.40 1016.20 1015.61 1014.90 1014.58 1014.54 1014.59 1014.69
1024.69 1024.75 1024.85 1024.73 1024.67 1024.83 1024.97 1025.35 1025.66 1025.73 1025.94 1025.60 1025.32 1024.93 1024.54 1024.14 1023.87 1023.38 1022.95 1022.22 1021.24 1020.69 1019.99 1019.42 1018.97 1018.32 1017.68 1017.10 1016.55 1015.98 1015.54 1015.37 1014.67 1014.09 1013.64 1013.55 1013.65 1013.78
1024.55 1024.56 1024.56 1024.36 1024.33 1024.41 1024.58 1024.82 1025.11 1025.41 1025.45 1025.28 1024.99 1024.79 1024.40 1024.11 1023.64 1023.20 1022.61 1022.01 1021.03 1020.06 1019.79 1018.86 1018.49 1017.70 1017.07 1016.48 1015.73 1015.17 1014.71 1014.43 1014.45 1013.56 1013.07 1012.88 1012.84 1012.84
1024.24 1024.26 1024.30 1024.22 1024.36 1024.48 1024.55 1024.71 1024.97 1024.88 1024.80 1024.71 1024.62 1024.53 1024.14 1023.79 1023.28 1022.67 1022.05 1021.49 1020.79 1019.77 1019.54 1018.67 1017.63 1017.12 1016.22 1015.57 1014.79 1014.35 1013.99 1013.63 1013.40 1013.05 1012.80 1012.59 1012.46 1012.31
1023.91 1023.91 1023.99 1024.02 1024.14 1024.33 1024.44 1024.61 1024.61 1024.47 1024.36 1024.16 1024.16 1023.94 1023.69 1023.16 1022.72 1022.06 1021.36 1020.66 1020.14 1019.36 1019.11 1018.28 1017.11 1016.59 1015.71 1014.99 1014.22 1013.76 1013.35 1013.09 1012.69 1012.28 1011.89 1011.80 1011.75 1011.75
1023.40 1023.48 1023.59 1023.59 1023.66 1023.76 1024.14 1024.27 1024.20 1023.99 1023.76 1023.59 1023.45 1023.21 1022.85 1022.43 1021.95 1021.50 1021.12 1020.62 1019.71 1018.76 1018.34 1017.91 1016.58 1015.94 1015.22 1014.39 1013.67 1013.33 1012.90 1012.59 1012.03 1011.42 1011.00 1010.89 1010.98 1011.06
1023.18 1023.22 1023.10 1023.18 1023.26 1023.49 1023.69 1023.82 1023.82 1023.61 1023.51 1023.36 1023.25 1022.94 1022.57 1022.17 1021.64 1021.37 1020.96 1020.53 1019.83 1018.55 1017.71 1017.51 1016.28 1015.76 1014.82 1013.94 1013.66 1013.09 1012.68 1012.21 1011.59 1010.89 1010.39 1010.28 1010.49 1010.68
1022.90 1022.92 1022.86 1022.71 1022.85 1022.98 1022.97 1023.14 1023.30 1023.12 1023.12 1023.11 1023.01 1022.72 1022.36 1021.90 1021.38 1020.92 1020.52 1020.25 1019.64 1018.82 1017.74 1017.42 1015.93 1015.27 1014.93 1014.36 1013.51 1012.92 1012.48 1011.78 1011.24 1010.63 1010.27 1010.15 1010.00 1010.03
1022.34 1022.22 1022.26 1022.31 1022.32 1022.37 1022.38 1022.38 1022.36 1022.53 1022.63 1022.81 1022.83 1022.53 1022.19 1021.62 1021.07 1020.58 1019.99 1019.43 1018.92 1018.37 1017.42 1016.91 1016.02 1015.06 1014.49 1013.96 1013.44 1012.56 1012.03 1011.33 1010.89 1010.39 1009.92 1009.52 1009.22 1009.14
1021.43 1021.51 1021.76 1021.84 1021.85 1021.88 1021.89 1021.91 1021.92 1022.02 1022.28 1022.66 1022.51 1022.24 1021.81 1021.27 1020.72 1020.27 1019.61 1018.96 1018.22 1017.50 1016.76 1016.34 1015.88 1015.07 1014.37 1013.41 1013.12 1012.58 1012.14 1011.09 1010.76 1010.20 1009.42 1008.89 1008.68 1008.56
1020.69 1021.00 1021.22 1021.35 1021.44 1021.49 1021.51 1021.46 1021.42 1021.49 1021.71 1021.85 1021.94 1021.62 1021.39 1021.02 1020.68 1020.24 1019.77 1019.00 1018.20 1017.26 1016.44 1015.93 1015.33 1014.71 1013.91 1013.02 1012.66 1012.39 1012.11 1011.85 1010.72 1010.07 1009.34 1008.70 1008.55 1008.45
1019.90 1020.47 1020.86 1021.04 1021.16 1021.10 1021.10 1021.01 1020.87 1020.95 1021.21 1021.23 1021.55 1021.65 1021.33 1020.96 1020.69 1020.14 1019.75 1019.22 1018.59 1017.64 1016.63 1015.69 1014.85 1014.27 1013.55 1012.83 1012.32 1012.27 1012.13 1011.66 1010.96 1010.20 1009.61 1009.08 1008.64 1008.54
1019.18 1019.57 1019.91 1020.19 1020.41 1020.51 1020.57 1020.51 1020.43 1020.47 1020.50 1020.70 1021.01 1021.17 1021.28 1021.07 1020.70 1020.14 1019.74 1019.39 1018.77 1017.86 1017.06 1016.18 1015.34 1014.51 1013.65 1013.03 1012.53 1012.35 1012.18 1011.83 1011.13 1010.66 1010.26 1009.71 1009.35 1009.02
1018.04 1018.53 1018.82 1019.22 1019.44 1019.66 1019.74 1019.81 1019.83 1019.67 1019.73 1020.06 1020.43 1020.69 1020.88 1020.97 1020.69 1020.28 1019.87 1019.44 1018.76 1018.01 1017.18 1016.47 1015.89 1015.42 1014.75 1013.99 1012.90 1012.64 1012.61 1012.08 1011.57 1011.21 1011.07 1010.66 1010.39 1010.26
1016.98 1017.43 1017.76 1018.10 1018.42 1018.66 1018.79 1018.92 1018.99 1019.12 1019.41 1019.63 1020.04 1020.26 1020.56 1020.74 1020.57 1020.31 1019.95 1019.62 1019.02 1018.12 1017.31 1016.63 1016.09 1015.66 1015.32 1014.61 1013.76 1013.04 1012.78 1012.32 1011.76 1011.63 1011.64 1011.38 1011.18 1011.01
1016.02 1016.30 1016.63 1016.96 1017.30 1017.51 1017.68 1017.88 1018.11 1018.47 1018.72 1019.15 1019.48 1019.83 1019.96 1020.18 1020.33 1020.18 1019.89 1019.53 1019.03 1018.34 1017.68 1016.90 1016.11 1015.42 1014.56 1013.74 1013.58 1013.38 1013.19 1012.65 1012.07 1011.99 1011.96 1011.99 1011.91 1011.73
1014.99 1015.15 1015.37 1015.72 1016.06 1016.37 1016.62 1016.91 1017.20 1017.55 1017.93 1018.40 1018.70 1019.06 1019.23 1019.43 1019.97 1019.93 1019.76 1019.57 1019.11 1018.57 1017.96 1017.05 1016.09 1015.27 1014.53 1014.16 1013.77 1013.78 1013.60 1013.33 1012.78 1012.52 1012.45 1012.46 1012.47 1012.52
1013.92 1014.04 1014.24 1014.58 1014.87 1015.20 1015.53 1015.77 1016.09 1016.36 1016.63 1016.99 1017.51 1018.00 1018.47 1019.17 1019.10 1019.26 1019.65 1019.39 1019.05 1018.64 1018.20 1017.48 1016.62 1015.89 1015.39 1014.93 1014.42 1014.06 1013.83 1013.75 1013.53 1013.28 1013.29 1013.08 1012.88 1012.67
Wind_Speed
1 1 1 2 3 3 2 1 1 2 3 2 2 4 4 4 8 5 6 14 19 18 19 19 19 20 20 21 20 21 23 23 25 26 26 27 27 23
2 1 1 1 1 2 1 2 2 1 4 1 2 2 4 6 9 9 8 17 17 17 17 19 20 19 20 21 21 21 21 23 25 28 28 26 26 22
2 4 4 3 3 2 2 2 2 2 3 3 2 2 3 6 9 7 8 8 6 14 17 20 18 19 20 17 16 17 19 21 22 26 29 26 23 22
3 2 4 2 3 2 2 3 2 2 3 5 3 3 4 7 7 8 8 8 5 13 18 19 20 20 18 16 15 15 17 19 22 23 24 24 22 22
4 3 5 4 4 3 3 3 2 2 2 2 5 3 3 4 7 7 6 6 7 17 19 20 21 20 20 18 19 18 18 19 21 21 20 19 20 21
3 2 3 4 5 5 3 2 2 2 2 3 5 6 3 6 4 5 7 5 9 10 15 15 17 17 21 21 20 21 18 19 23 23 21 19 17 17
3 2 3 5 8 6 3 3 2 1 3 4 6 5 6 6 6 5 6 8 10 7 7 6 5 8 9 15 17 20 18 15 20 15 14 16 14 15
3 3 4 4 4 8 7 6 4 2 4 2 3 6 6 5 4 6 7 7 7 3 2 12 5 8 8 7 18 20 19 16 19 19 12 12 15 15
4 4 4 3 5 5 4 1 3 6 4 3 5 4 7 7 8 9 9 7 8 10 6 9 4 8 8 9 19 20 16 15 17 19 17 15 15 14
5 5 5 5 5 5 4 3 4 4 4 4 5 5 7 7 8 9 11 9 6 7 4 7 4 7 8 7 16 13 10 10 11 16 18 19 18 16
5 5 5 5 8 8 4 4 4 5 5 8 10 14 16 16 13 6 6 6 8 9 4 4 5 7 6 8 6 11 14 14 11 14 14 17 16 15
4 5 6 6 10 9 5 4 4 5 4 5 5 8 10 9 13 5 5 6 7 7 1 6 9 5 4 3 3 4 4 12 12 13 11 10 13 6
4 4 4 9 11 10 9 5 6 4 6 5 4 5 5 6 5 6 6 5 7 7 10 7 6 6 3 4 3 3 3 7 4 5 9 13 15 13
6 5 4 12 13 12 8 9 11 6 3 3 3 5 5 5 5 6 8 7 7 10 11 10 7 3 4 5 4 3 5 5 2 6 5 9 17 16
6 8 11 12 14 9 12 12 7 2 3 1 5 3 3 4 6 6 7 8 9 9 7 7 7 8 7 6 5 3 3 4 3 7 5 6 4 2
7 7 6 5 5 6 4 7 4 4 4 5 3 3 2 3 3 3 4 6 7 6 9 6 8 7 6 5 4 3 2 3 4 7 4 2 1 1
5 3 3 3 5 5 4 5 4 3 3 2 2 2 2 2 2 3 3 5 4 6 7 8 9 9 6 8 2 3 5 3 4 5 3 3 3 2
4 5 7 6 7 6 6 4 4 4 3 4 3 2 2 2 2 3 3 3 5 6 6 7 7 8 4 3 6 3 4 3 3 4 3 3 4 5
6 6 7 6 7 7 6 5 4 5 4 4 3 4 3 2 2 2 3 3 4 5 6 6 5 4 6 3 3 9 4 3 5 3 4 4 3 5
7 7 8 7 7 7 6 5 5 3 4 4 4 3 3 3 1 2 3 2 4 5 6 6 5 5 4 3 3 3 9 3 2 1 2 2 2 5
9 8 8 7 7 7 6 5 5 4 5 4 4 4 4 3 2 3 2 4 4 3 6 7 7 13 8 5 1 3 3 11 10 3 1 2 1 3
8 8 8 8 7 7 6 6 5 5 6 5 4 4 3 3 3 3 2 2 3 2 3 6 8 7 5 4 4 1 2 4 6 14 16 9 1 1
9 9 8 8 7 7 7 6 6 6 7 7 5 4 4 3 4 3 2 2 2 2 2 4 5 4 4 4 4 3 2 2 2 3 4 13 11 12
Wind_Direction
130 338 305 341 10 357 39 83 230 302 279 312 340 4 353 334 326 315 313 312 314 314 306 301 299 294 296 294 291 292 288 286 285 282 280 276 274 279
177 150 185 216 188 139 223 260 174 184 277 266 270 313 318 315 312 314 298 313 306 304 304 304 301 298 301 296 295 290 285 285 283 282 279 273 269 274
218 218 251 233 221 242 126 121 131 150 250 289 271 283 290 309 310 304 300 296 287 313 315 311 314 307 299 297 302 303 287 282 285 281 277 270 271 269
192 212 244 239 207 184 148 166 172 229 205 264 261 295 294 304 292 301 300 306 311 311 311 316 309 306 303 296 295 290 287 285 285 281 272 268 270 272
208 236 278 272 239 184 201 211 195 210 226 262 289 268 270 291 301 301 291 296 295 307 302 296 295 300 301 305 301 295 287 297 292 280 266 259 265 270
176 249 269 223 203 217 226 214 226 262 266 271 282 288 276 291 275 295 303 298 298 300 296 293 295 297 299 297 293 292 284 296 293 275 261 248 252 253
220 264 211 226 232 206 163 191 193 261 276 277 288 294 303 306 300 296 291 299 298 277 278 279 280 290 282 287 283 284 279 303 298 285 267 239 242 252
240 270 257 259 164 156 148 150 167 241 258 233 283 290 293 318 294 292 292 301 307 258 331 300 282 282 277 272 275 278 280 281 285 285 267 253 247 255
214 242 250 189 176 177 182 203 269 293 275 251 279 272 300 296 291 293 285 276 277 289 288 286 285 281 282 280 285 290 287 283 272 266 262 261 262 266
227 233 228 227 210 195 195 252 277 291 279 280 275 280 275 280 275 285 286 287 275 282 246 278 299 278 279 272 284 290 264 291 299 280 259 250 253 260
217 224 238 217 205 199 212 263 275 277 293 293 307 307 311 312 312 314 310 314 309 303 246 261 288 283 278 275 278 273 293 293 312 305 274 249 242 262
233 243 237 199 196 207 209 233 268 275 276 290 294 304 306 298 310 289 290 300 301 308 255 305 294 287 296 268 279 287 295 284 300 310 281 242 253 265
218 226 221 212 211 226 246 204 222 251 274 268 276 288 289 292 296 297 286 271 290 281 286 301 294 287 238 282 269 276 264 299 277 289 262 255 266 261
217 222 215 224 224 239 260 248 259 255 232 262 275 285 283 284 297 296 295 287 271 268 284 291 302 302 282 284 266 306 299 294 285 313 275 269 270 263
215 220 228 230 236 250 261 270 270 229 239 246 267 257 244 266 300 307 307 303 293 290 293 296 298 304 294 272 275 276 315 306 303 315 274 273 261 215
221 229 215 210 228 243 264 268 238 222 219 230 228 235 270 290 292 292 298 312 311 308 312 291 298 309 304 283 257 286 278 292 314 321 318 332 336 315
191 178 211 211 247 251 252 243 241 232 212 198 194 237 261 268 276 295 286 313 310 317 323 325 327 323 296 296 275 311 317 306 300 319 310 332 350 28
186 199 218 222 226 235 244 248 235 233 226 189 194 213 232 254 269 302 305 297 310 316 319 324 334 340 338 320 41 339 320 300 299 336 338 340 4 18
209 208 218 208 221 229 234 223 231 229 193 189 191 209 215 250 286 293 300 313 312 314 315 324 331 340 336 310 296 60 358 319 320 353 17 12 17 13
205 212 217 213 218 226 226 221 232 213 196 191 193 199 197 191 274 281 299 283 299 308 323 328 328 326 306 257 312 294 15 314 293 357 30 354 22 52
220 217 217 216 215 218 219 213 208 199 201 183 206 199 201 166 235 251 285 309 297 307 324 326 312 308 285 273 340 322 323 14 46 43 33 98 2 6
222 217 217 217 215 214 213 217 209 198 205 207 209 196 204 166 198 227 258 274 299 263 276 311 320 328 335 348 345 308 332 334 21 52 47 55 66 19
227 221 216 216 214 213 217 211 212 207 208 205 199 200 175 177 202 197 229 263 265 302 296 313 330 337 327 340 331 328 10 333 8 8 18 22 41 44